timestamp,wind_dir_avg,wind_spd_avg,wind_spd_max_dir,wind_spd_gust,battery_voltage,lat,long
2020-12-04 00:04:01+00:00,235.0,4.86,236.0,5.34,12.41,47.59359,-54.27349
2020-12-04 00:14:01+00:00,233.0,4.12,235.0,4.48,12.41,47.59359,-54.27349
2020-12-04 00:24:01+00:00,247.0,3.49,249.0,3.87,12.41,47.59359,-54.27349
2020-12-04 00:34:01+00:00,242.0,3.64,242.0,3.98,12.41,47.59359,-54.27349
2020-12-04 00:44:01+00:00,235.0,3.32,233.0,3.77,12.41,47.59359,-54.27349
2020-12-04 00:54:01+00:00,225.0,3.82,222.0,4.37,12.41,47.59359,-54.27349
2020-12-04 01:04:01+00:00,218.0,4.32,222.0,4.69,12.41,47.59359,-54.27349
2020-12-04 01:14:01+00:00,207.0,3.79,210.0,4.28,12.41,47.59359,-54.27349
2020-12-04 01:24:01+00:00,219.0,4.04,222.0,4.6,12.41,47.59359,-54.27349
2020-12-04 01:34:01+00:00,229.0,4.21,229.0,4.76,12.41,47.59359,-54.27349
2020-12-04 01:44:01+00:00,238.0,3.9,237.0,4.23,12.41,47.59359,-54.27349
2020-12-04 01:54:01+00:00,248.0,2.52,250.0,2.85,12.41,47.59359,-54.27349
2020-12-04 02:04:01+00:00,223.0,0.98,239.0,1.59,12.41,47.59359,-54.27349
2020-12-04 02:14:01+00:00,127.0,0.16,91.0,0.71,12.41,47.59359,-54.27349
2020-12-04 02:24:01+00:00,126.0,1.25,127.0,1.63,12.41,47.59359,-54.27349
2020-12-04 02:34:01+00:00,145.0,1.32,145.0,1.84,12.41,47.59359,-54.27349
2020-12-04 02:44:01+00:00,151.0,2.27,140.0,3.49,12.41,47.59359,-54.27349
2020-12-04 02:54:01+00:00,171.0,3.11,171.0,3.29,12.41,47.59359,-54.27349
2020-12-04 03:04:01+00:00,180.0,3.29,181.0,3.42,12.41,47.59359,-54.27349
2020-12-04 03:14:01+00:00,199.0,2.68,206.0,2.96,12.33,47.59359,-54.27349
2020-12-04 03:24:01+00:00,186.0,2.58,191.0,2.86,12.33,47.59359,-54.27349
2020-12-04 03:34:01+00:00,204.0,2.34,207.0,2.53,12.33,47.59359,-54.27349
2020-12-04 03:44:01+00:00,233.0,2.46,233.0,2.69,12.33,47.59359,-54.27349
2020-12-04 03:54:01+00:00,239.0,2.8,240.0,3.01,12.33,47.59359,-54.27349
2020-12-04 04:04:01+00:00,235.0,3.15,233.0,3.52,12.33,47.59359,-54.27349
2020-12-04 04:14:01+00:00,245.0,4.21,252.0,5.27,12.33,47.59359,-54.27349
2020-12-04 04:24:01+00:00,252.0,4.2,251.0,4.4,12.33,47.59359,-54.27349
2020-12-04 04:34:01+00:00,258.0,3.17,251.0,3.37,12.33,47.59359,-54.27349
2020-12-04 04:44:01+00:00,254.0,3.64,253.0,3.94,12.33,47.59359,-54.27349
2020-12-04 04:54:01+00:00,252.0,3.13,251.0,3.47,12.33,47.59359,-54.27349
2020-12-04 05:04:01+00:00,258.0,4.01,257.0,4.42,12.33,47.59359,-54.27349
2020-12-04 05:14:01+00:00,257.0,4.67,257.0,4.99,12.33,47.59359,-54.27349
2020-12-04 05:24:01+00:00,262.0,4.23,262.0,4.75,12.33,47.59359,-54.27349
2020-12-04 05:34:01+00:00,265.0,4.84,266.0,5.15,12.33,47.59359,-54.27349
2020-12-04 05:44:01+00:00,272.0,4.94,272.0,5.15,12.33,47.59359,-54.27349
2020-12-04 05:54:01+00:00,277.0,4.01,276.0,4.41,12.33,47.59359,-54.27349
2020-12-04 06:04:01+00:00,253.0,2.94,259.0,3.25,12.33,47.59359,-54.27349
2020-12-04 06:14:01+00:00,227.0,1.52,239.0,1.93,12.33,47.59359,-54.27349
2020-12-04 06:24:01+00:00,181.0,2.28,183.0,2.68,12.33,47.59359,-54.27349
2020-12-04 06:34:01+00:00,204.0,2.7,213.0,3.25,12.33,47.59359,-54.27349
2020-12-04 06:44:01+00:00,232.0,2.55,231.0,3.2,12.33,47.59359,-54.27349
2020-12-04 06:54:01+00:00,238.0,3.35,244.0,4.1,12.33,47.59359,-54.27349
2020-12-04 07:04:01+00:00,249.0,3.32,252.0,3.71,12.33,47.59359,-54.27349
2020-12-04 07:14:01+00:00,258.0,3.92,260.0,4.56,12.33,47.59359,-54.27349
2020-12-04 07:24:01+00:00,254.0,3.75,254.0,4.0,12.33,47.59359,-54.27349
2020-12-04 07:34:01+00:00,254.0,3.72,250.0,4.66,12.33,47.59359,-54.27349
2020-12-04 07:44:01+00:00,248.0,2.48,251.0,2.82,12.33,47.59359,-54.27349
2020-12-04 07:54:01+00:00,227.0,1.62,227.0,2.33,12.33,47.59359,-54.27349
2020-12-04 08:04:01+00:00,298.0,2.45,304.0,3.1,12.33,47.59359,-54.27349
2020-12-04 08:14:01+00:00,297.0,4.2,293.0,4.9,12.33,47.59359,-54.27349
2020-12-04 08:24:01+00:00,301.0,5.27,298.0,5.88,12.33,47.59359,-54.27349
2020-12-04 08:34:01+00:00,308.0,5.49,311.0,6.22,12.33,47.59359,-54.27349
2020-12-04 08:44:01+00:00,315.0,4.57,320.0,5.86,12.33,47.59359,-54.27349
2020-12-04 08:54:01+00:00,301.0,5.52,307.0,6.22,12.33,47.59359,-54.27349
2020-12-04 09:04:01+00:00,294.0,4.01,293.0,4.51,12.33,47.59359,-54.27349
2020-12-04 09:14:01+00:00,293.0,3.36,300.0,4.36,12.33,47.59359,-54.27349
2020-12-04 09:24:01+00:00,313.0,2.99,314.0,3.69,12.33,47.59359,-54.27349
2020-12-04 09:34:01+00:00,307.0,4.45,315.0,5.62,12.33,47.59359,-54.27349
2020-12-04 09:44:01+00:00,319.0,4.59,322.0,5.24,12.33,47.59359,-54.27349
2020-12-04 09:54:01+00:00,319.0,3.44,319.0,4.16,12.33,47.59359,-54.27349
2020-12-04 10:04:01+00:00,318.0,2.52,308.0,3.13,12.33,47.59359,-54.27349
2020-12-04 10:14:01+00:00,308.0,3.72,300.0,4.86,12.33,47.59359,-54.27349
2020-12-04 10:24:01+00:00,315.0,5.45,313.0,6.09,12.33,47.59359,-54.27349
2020-12-04 10:34:01+00:00,316.0,6.16,318.0,7.0,12.33,47.59359,-54.27349
2020-12-04 10:44:01+00:00,308.0,6.97,309.0,7.94,12.33,47.59359,-54.27349
2020-12-04 10:54:01+00:00,314.0,6.83,316.0,7.77,12.33,47.59359,-54.27349
2020-12-04 11:04:01+00:00,316.0,7.08,316.0,8.12,12.33,47.59359,-54.27349
2020-12-04 11:14:01+00:00,314.0,6.43,311.0,7.18,12.33,47.59359,-54.27349
2020-12-04 11:24:01+00:00,307.0,5.63,307.0,6.51,12.33,47.59359,-54.27349
2020-12-04 11:34:01+00:00,308.0,5.72,306.0,6.25,12.33,47.59359,-54.27349
2020-12-04 11:44:01+00:00,309.0,3.94,308.0,4.41,12.33,47.59359,-54.27349
2020-12-04 11:54:01+00:00,302.0,3.17,305.0,4.08,12.33,47.59359,-54.27349
2020-12-04 12:04:01+00:00,292.0,3.52,295.0,4.07,12.33,47.59359,-54.27349
2020-12-04 12:14:01+00:00,299.0,3.44,293.0,3.86,14.08,47.59359,-54.27349
2020-12-04 12:24:01+00:00,298.0,2.54,299.0,2.82,14.08,47.59359,-54.27349
2020-12-04 12:34:01+00:00,293.0,2.94,295.0,3.25,14.08,47.59359,-54.27349
2020-12-04 12:44:01+00:00,293.0,2.81,291.0,3.22,14.08,47.59359,-54.27349
2020-12-04 12:54:01+00:00,287.0,2.63,281.0,3.24,14.08,47.59359,-54.27349
2020-12-04 13:04:01+00:00,301.0,3.17,304.0,3.64,14.08,47.59359,-54.27349
2020-12-04 13:14:01+00:00,288.0,3.87,289.0,4.51,13.84,47.59359,-54.27349
2020-12-04 13:24:01+00:00,290.0,4.09,291.0,4.85,13.84,47.59359,-54.27349
2020-12-04 13:34:01+00:00,289.0,3.91,292.0,4.37,13.84,47.59359,-54.27349
2020-12-04 13:44:01+00:00,285.0,3.65,283.0,4.5,13.84,47.59359,-54.27349
2020-12-04 13:54:01+00:00,281.0,2.84,284.0,3.58,13.84,47.59359,-54.27349
2020-12-04 14:04:01+00:00,277.0,3.08,272.0,4.03,13.84,47.59359,-54.27349
2020-12-04 14:14:01+00:00,274.0,3.29,270.0,4.1,14.24,47.59359,-54.27349
2020-12-04 14:24:01+00:00,260.0,2.78,261.0,3.42,14.24,47.59359,-54.27349
2020-12-04 14:34:01+00:00,245.0,3.58,244.0,4.3,14.24,47.59359,-54.27349
2020-12-04 14:44:01+00:00,264.0,4.34,263.0,5.29,14.24,47.59359,-54.27349
2020-12-04 14:54:01+00:00,262.0,4.22,267.0,5.32,14.24,47.59359,-54.27349
2020-12-04 15:04:01+00:00,269.0,4.73,269.0,5.25,14.24,47.59359,-54.27349
2020-12-04 16:14:01+00:00,277.0,4.8,276.0,5.61,13.76,47.59359,-54.27349
2020-12-04 16:24:01+00:00,273.0,5.05,273.0,6.19,13.76,47.59359,-54.27349
2020-12-04 16:34:01+00:00,269.0,4.38,271.0,5.1,13.76,47.59359,-54.27349
2020-12-04 16:44:01+00:00,254.0,4.5,259.0,5.17,13.76,47.59359,-54.27349
2020-12-04 16:54:01+00:00,246.0,4.53,245.0,5.2,13.76,47.59359,-54.27349
2020-12-04 17:04:01+00:00,244.0,4.87,245.0,5.4,13.76,47.59359,-54.27349
2020-12-04 17:14:01+00:00,269.0,5.65,265.0,7.15,14.24,47.59359,-54.27349
2020-12-04 17:24:01+00:00,275.0,6.56,273.0,7.48,14.24,47.59359,-54.27349
2020-12-04 17:34:01+00:00,271.0,5.53,271.0,6.42,14.24,47.59359,-54.27349
2020-12-04 17:44:01+00:00,272.0,6.96,271.0,8.41,14.24,47.59359,-54.27349
2020-12-04 17:54:01+00:00,271.0,7.06,273.0,7.61,14.24,47.59359,-54.27349
2020-12-04 18:04:01+00:00,267.0,8.18,268.0,8.97,14.24,47.59359,-54.27349
2020-12-04 18:14:01+00:00,277.0,7.26,277.0,8.06,14.16,47.59359,-54.27349
2020-12-04 18:24:01+00:00,281.0,7.3,283.0,8.23,14.16,47.59359,-54.27349
2020-12-04 18:34:01+00:00,279.0,6.91,283.0,7.56,14.16,47.59359,-54.27349
2020-12-04 18:44:01+00:00,279.0,6.78,278.0,7.82,14.16,47.59359,-54.27349
2020-12-04 18:54:01+00:00,285.0,7.24,284.0,7.88,14.16,47.59359,-54.27349
2020-12-04 19:04:01+00:00,269.0,6.38,271.0,7.64,14.16,47.59359,-54.27349
2020-12-04 19:14:01+00:00,260.0,7.61,258.0,8.4,13.13,47.59359,-54.27349
2020-12-04 19:24:01+00:00,270.0,6.97,269.0,7.76,13.13,47.59359,-54.27349
2020-12-04 19:34:01+00:00,274.0,5.95,285.0,6.8,13.13,47.59359,-54.27349
2020-12-04 19:44:01+00:00,267.0,3.78,268.0,4.11,13.13,47.59359,-54.27349
2020-12-04 19:54:01+00:00,272.0,4.73,270.0,5.46,13.13,47.59359,-54.27349
2020-12-04 20:04:01+00:00,267.0,3.72,266.0,4.26,13.13,47.59359,-54.27349
2020-12-04 20:14:01+00:00,254.0,4.28,253.0,4.88,12.81,47.59359,-54.27349
2020-12-04 20:24:01+00:00,249.0,3.4,247.0,3.69,12.81,47.59359,-54.27349
2020-12-04 20:34:01+00:00,248.0,1.43,253.0,1.61,12.81,47.59359,-54.27349
2020-12-04 20:44:01+00:00,233.0,3.13,235.0,3.86,12.81,47.59359,-54.27349
2020-12-04 20:54:01+00:00,248.0,6.24,249.0,6.98,12.81,47.59359,-54.27349
2020-12-04 21:04:01+00:00,240.0,5.55,242.0,6.44,12.81,47.59359,-54.27349
2020-12-04 21:14:01+00:00,245.0,4.88,248.0,5.28,12.73,47.59359,-54.27349
2020-12-04 21:24:01+00:00,230.0,3.94,233.0,4.77,12.73,47.59359,-54.27349
2020-12-04 21:34:01+00:00,227.0,4.25,217.0,5.02,12.73,47.59359,-54.27349
2020-12-04 21:44:01+00:00,239.0,4.22,239.0,4.9,12.73,47.59359,-54.27349
2020-12-04 21:54:01+00:00,240.0,5.1,242.0,5.49,12.73,47.59359,-54.27349
2020-12-04 22:04:01+00:00,245.0,4.22,241.0,4.74,12.73,47.59359,-54.27349
2020-12-04 22:14:01+00:00,233.0,4.82,234.0,5.56,12.65,47.59359,-54.27349
2020-12-04 22:24:01+00:00,244.0,5.87,246.0,7.06,12.65,47.59359,-54.27349
2020-12-04 22:34:01+00:00,252.0,5.52,254.0,6.29,12.65,47.59359,-54.27349
2020-12-04 22:44:01+00:00,255.0,5.81,252.0,6.54,12.65,47.59359,-54.27349
2020-12-04 22:54:01+00:00,257.0,5.35,260.0,5.97,12.65,47.59359,-54.27349
2020-12-04 23:04:01+00:00,259.0,5.61,265.0,6.31,12.65,47.59359,-54.27349
2020-12-04 23:14:01+00:00,254.0,4.92,255.0,5.84,12.65,47.59359,-54.27349
2020-12-04 23:24:01+00:00,259.0,4.49,259.0,5.73,12.65,47.59359,-54.27349
2020-12-04 23:34:01+00:00,247.0,4.76,250.0,5.07,12.65,47.59359,-54.27349
2020-12-04 23:44:01+00:00,245.0,5.11,245.0,5.79,12.65,47.59359,-54.27349
2020-12-04 23:54:01+00:00,247.0,5.48,244.0,6.16,12.65,47.59359,-54.27349
